[[{"header":{"parameterUnit":"m.s-1","parameterCategory":1,"la1":30.2991,"la2":30.254,"lo1":-89.0895,"lo2":-89.0444,"dy":0.0017,"dx":0.0017,"nx":28,"ny":28,"refTime":"2023-04-01T21:00:00:Z","depth":0,"parameterNumber":2,"parameterNumberName":"U-component_of_WINDS"},"data":[0,0,0,0,0,0,0,0,0,0,0,0,0,0,0,0,0,0,0,0,0,0,0,0,0,0,0,0,0,0,0,0,0,0,0,0,0,0,0,0,0,0,0,0,0,0,0,0,0,0,0,0,0,0,0,0,0,0,-1.7563,-1.7564,0,-1.7655,-1.7657,-1.7658,-1.77,-1.77,-1.77,-1.77,-1.7794,-1.7796,-1.7799,0,0,0,0,0,0,0,0,0,0,0,0,0,-1.7421,-1.7424,-1.7562,-1.7564,-1.7565,-1.7655,-1.7657,-1.7658,-1.77,-1.77,-1.77,-1.7699,-1.7793,-1.7796,-1.7799,0,0,0,0,0,0,0,0,0,0,0,0,0,-1.7495,-1.7424,-1.7562,-1.7597,-1.7601,-1.7655,-1.7657,-1.7658,-1.77,-1.77,-1.77,-1.7699,-1.7792,-1.7796,-1.78,-1.7827,0,0,-1.7812,-1.7813,0,0,0,0,0,0,0,0,-1.7491,-1.75,-1.759,-1.7594,-1.7599,-1.7666,-1.7641,-1.7715,-1.77,-1.7662,-1.77,-1.7699,-1.7751,-1.7759,-1.7776,-1.7831,-1.7835,-1.7812,-1.7814,-1.7816,-1.7817,0,0,0,0,0,0,0,-1.7486,-1.7496,-1.7599,-1.7592,-1.7597,-1.7607,-1.7618,-1.7655,-1.7706,-1.7665,-1.7669,-1.7679,-1.7754,-1.7772,-1.7779,-1.7836,-1.7812,-1.7815,-1.7818,-1.7819,-1.7919,-1.7919,0,0,0,0,0,0,-1.7475,-1.7492,-1.7596,-1.7602,-1.7543,-1.761,-1.7622,-1.7645,-1.7706,-1.7715,-1.7679,-1.7681,-1.7766,-1.7774,-1.7782,-1.7819,-1.7816,-1.782,-1.7822,-1.7918,-1.7919,-1.7919,0,0,0,0,0,0,-1.7472,-1.7484,-1.7593,-1.7548,-1.7563,-1.7613,-1.7638,-1.7646,-1.7665,-1.7717,-1.7726,-1.7689,-1.7766,-1.7777,-1.7816,-1.7822,-1.7821,-1.7825,-1.7918,-1.7919,-1.7919,-1.789,0,0,0,0,0,0,-1.7468,-1.7482,-1.7493,-1.7548,-1.7565,-1.7624,-1.7638,-1.7648,-1.7672,-1.7675,-1.7728,-1.7737,-1.7767,-1.7809,-1.7819,-1.7828,-1.7828,-1.7918,-1.7918,-1.7919,-1.7891,-1.789,-1.7889,0,0,0,0,0,-1.7462,-1.7481,-1.7494,-1.7506,-1.7579,-1.7624,-1.7634,-1.7668,-1.7672,-1.7684,-1.7717,-1.7735,-1.782,-1.7813,-1.7825,-1.7834,-1.7917,-1.7918,-1.7919,-1.7891,-1.789,-1.7889,0,0,0,0,0,0,-1.7426,-1.7489,-1.7503,-1.754,-1.7577,-1.7631,-1.7647,-1.7666,-1.7701,-1.7703,-1.7743,-1.7755,-1.779,-1.7816,-1.7807,-1.7864,-1.787,-1.7873,-1.7846,-1.7845,-1.7844,-1.7837,-1.7831,0,0,0,0,0,-1.7422,-1.7453,-1.7507,-1.7534,-1.7552,-1.7596,-1.7617,-1.764,-1.768,-1.7695,-1.7731,-1.7768,-1.7803,-1.7825,-1.786,-1.7895,-1.7907,-1.7907,-1.7906,-1.7905,-1.7907,-1.7928,-1.7929,-1.7921,-1.7921,-1.7921,0,0,-1.7414,-1.7453,-1.747,-1.7528,-1.7559,-1.7591,-1.7609,-1.7641,-1.7665,-1.77,-1.7739,-1.7766,-1.7811,-1.7847,-1.7865,-1.787,-1.7912,-1.7906,-1.7905,-1.7908,-1.7929,-1.7929,-1.793,-1.7922,-1.7922,-1.7922,0,0,-1.7417,-1.7449,-1.7476,-1.7507,-1.7553,-1.7583,-1.7589,-1.7641,-1.7661,-1.7701,-1.7728,-1.7757,-1.7816,-1.7847,-1.787,-1.7885,-1.7903,-1.7895,-1.789,-1.7909,-1.791,-1.7911,-1.7916,-1.7918,-1.7897,-1.7897,-1.7897,0,-1.7402,-1.7451,-1.7487,-1.7519,-1.7544,-1.7577,-1.7604,-1.7632,-1.7688,-1.7704,-1.7709,-1.7785,-1.7817,-1.7861,-1.7865,-1.7883,-1.7891,-1.7889,-1.7907,-1.7908,-1.7909,-1.7915,-1.7917,-1.7896,-1.7896,-1.7896,-1.7896,0,-1.743,-1.7464,-1.748,-1.7533,-1.7559,-1.7589,-1.763,-1.7652,-1.7673,-1.7702,-1.7742,-1.7782,-1.7826,-1.7838,-1.7859,-1.7886,-1.7888,-1.7899,-1.7906,-1.7908,-1.7914,-1.7917,-1.7894,-1.7894,-1.7895,-1.7895,0,0,-1.7412,-1.7485,-1.7491,-1.7515,-1.757,-1.7596,-1.7627,-1.7671,-1.7689,-1.7727,-1.7754,-1.7804,-1.7815,-1.7841,-1.7865,-1.7883,-1.7892,-1.7892,-1.7894,-1.7891,-1.7925,-1.7917,-1.7919,-1.7905,-1.7906,-1.7906,-1.7922,0,-1.7422,-1.7479,-1.7513,-1.7556,-1.7588,-1.762,-1.7647,-1.7683,-1.7711,-1.7742,-1.7773,-1.7808,-1.7819,-1.7836,-1.7854,-1.7887,-1.79,-1.7887,-1.7931,-1.7932,-1.7919,-1.7922,-1.7913,-1.7925,-1.7924,-1.7925,-1.7925,0,-1.7442,-1.7479,-1.7525,-1.7576,-1.7591,-1.7614,-1.7657,-1.7686,-1.7728,-1.7747,-1.7777,-1.7802,-1.7836,-1.784,-1.7888,-1.7878,-1.7898,-1.7918,-1.7919,-1.7924,-1.7928,-1.7927,-1.793,-1.7932,-1.7929,-1.7929,-1.7929,0,-1.7424,-1.7486,-1.7521,-1.7542,-1.7602,-1.7618,-1.7644,-1.7686,-1.771,-1.7747,-1.7763,-1.7804,-1.7826,-1.7857,-1.7892,-1.7892,-1.7936,-1.7944,-1.7953,-1.7952,-1.7961,-1.796,-1.7967,-1.7974,-1.7974,-1.7974,-1.7974,0,-1.7432,-1.7459,-1.7514,-1.7536,-1.7568,-1.7607,-1.7637,-1.7665,-1.7702,-1.773,-1.7761,-1.7786,-1.7831,-1.7863,-1.7891,-1.7926,-1.7936,-1.7952,-1.7959,-1.795,-1.7947,-1.7963,-1.7963,-1.7974,-1.7974,-1.7974,-1.7974,0,-1.7418,-1.7456,-1.7497,-1.7551,-1.7565,-1.7586,-1.7632,-1.7655,-1.7685,-1.772,-1.7731,-1.7777,-1.7816,-1.7854,-1.7906,-1.7924,-1.796,-1.7969,-1.7945,-1.7949,-1.7957,-1.7955,-1.7974,-1.7979,-1.7982,-1.7982,-1.7982,0,-1.7421,-1.7442,-1.7499,-1.752,-1.7545,-1.7579,-1.7604,-1.7643,-1.7667,-1.7717,-1.7734,-1.7775,-1.781,-1.787,-1.7908,-1.7948,-1.7959,-1.7963,-1.7965,-1.7955,-1.7959,-1.7958,-1.796,-1.7961,-1.7961,-1.7961,-1.7961,0,-1.7422,-1.7439,-1.7474,-1.7515,-1.7544,-1.7579,-1.7614,-1.763,-1.7676,-1.7702,-1.7742,-1.7769,-1.7822,-1.7863,-1.7907,-1.7934,-1.7955,-1.796,-1.7964,-1.7955,-1.794,-1.7948,-1.7942,-1.7959,-1.7959,-1.796,-1.796,-1.796,-1.7416,-1.7437,-1.748,-1.7518,-1.7549,-1.7581,-1.7605,-1.7638,-1.7672,-1.7719,-1.774,-1.778,-1.7822,-1.7884,-1.7911,-1.7943,-1.7948,-1.7954,-1.7956,-1.7957,-1.7955,-1.7935,-1.7951,-1.7951,-1.7951,-1.7951,-1.7951,0,-1.7419,-1.7448,-1.7482,-1.7531,-1.7561,-1.7578,-1.7619,-1.7643,-1.7678,-1.7715,-1.7749,-1.7795,-1.7834,-1.7876,-1.7918,-1.7936,-1.7947,-1.7945,-1.7945,-1.7951,-1.7948,-1.794,-1.7936,-1.7936,-1.7936,-1.7936,-1.7936,-1.7936,-1.7424,-1.746,-1.7483,-1.7535,-1.7564,-1.7604,-1.7626,-1.7656,-1.7686,-1.7736,-1.7769,-1.7796,-1.7836,-1.7881,-1.7918,-1.7929,-1.7943,-1.7939,-1.7953,-1.795,-1.7951,-1.7952,-1.7945,-1.7942,-1.7942,-1.7954,-1.7954,-1.7954]},{"header":{"parameterUnit":"m.s-1","parameterCategory":1,"la1":30.2991,"la2":30.254,"lo1":-89.0895,"lo2":-89.0444,"dy":0.0017,"dx":0.0017,"nx":28,"ny":28,"refTime":"2023-04-01T21:00:00:Z","depth":0,"parameterNumber":3,"parameterNumberName":"V-component_of_WINDS"},"data":[0,0,0,0,0,0,0,0,0,0,0,0,0,0,0,0,0,0,0,0,0,0,0,0,0,0,0,0,0,0,0,0,0,0,0,0,0,0,0,0,0,0,0,0,0,0,0,0,0,0,0,0,0,0,0,0,0,0,4.9987,4.9988,0,5.0095,5.0096,5.0097,5.0078,5.0077,5.0075,5.0073,5.0178,5.0182,5.0187,0,0,0,0,0,0,0,0,0,0,0,0,0,4.9759,4.9763,4.9987,4.9988,4.9989,5.0095,5.0096,5.0098,5.0079,5.0077,5.0074,5.0072,5.0176,5.0182,5.0187,0,0,0,0,0,0,0,0,0,0,0,0,0,4.9862,4.9765,4.9986,4.9993,4.9994,5.0095,5.0096,5.0098,5.0079,5.0076,5.0074,5.0071,5.0175,5.0181,5.0188,5.0287,0,0,5.0209,5.0212,0,0,0,0,0,0,0,0,4.9856,4.987,4.999,4.9993,4.9995,5.0071,5.0055,5.0161,5.008,5.0047,5.0073,5.007,5.0144,5.0153,5.0179,5.0291,5.0296,5.0209,5.0213,5.0216,5.0218,0,0,0,0,0,0,0,4.9849,4.9865,5.0029,4.9992,4.9995,4.9989,5.0,5.0075,5.011,5.005,5.0048,5.0062,5.0144,5.0173,5.0182,5.0298,5.0209,5.0215,5.0219,5.0222,5.0499,5.0502,0,0,0,0,0,0,4.984,4.9859,5.0026,5.0033,4.9917,4.9995,5.0008,5.0049,5.0109,5.0116,5.0064,5.0061,5.0163,5.0174,5.0185,5.0308,5.0216,5.0223,5.0227,5.0496,5.05,5.0503,0,0,0,0,0,0,4.9836,4.9856,5.0021,4.9946,4.9967,5.0002,5.0048,5.0052,5.0081,5.012,5.0126,5.0087,5.0161,5.0176,5.0263,5.0311,5.0226,5.0232,5.0492,5.0497,5.0501,5.0551,0,0,0,0,0,0,4.9829,4.9854,4.9893,4.9947,4.9971,5.0098,5.0051,5.0057,5.0094,5.009,5.0143,5.0149,5.016,5.0253,5.027,5.0319,5.0237,5.0488,5.0494,5.05,5.0545,5.0557,5.0567,0,0,0,0,0,4.9821,4.99,4.9895,4.9915,5.002,5.0101,5.0115,5.0127,5.0097,5.0137,5.0162,5.0147,5.0303,5.0262,5.028,5.0332,5.0485,5.0492,5.0499,5.054,5.0555,5.0567,0,0,0,0,0,0,4.9848,4.9907,4.9902,5.0001,5.0047,5.0098,5.0147,5.0141,5.0194,5.0189,5.02,5.0212,5.0301,5.0325,5.0278,5.0433,5.0389,5.0401,5.0414,5.0428,5.0439,5.0432,5.0243,0,0,0,0,0,4.9866,4.9928,4.9976,5.0059,5.0082,5.0111,5.0147,5.0153,5.0199,5.0218,5.0249,5.0294,5.0353,5.0391,5.0447,5.0548,5.056,5.0593,5.0604,5.0613,5.0623,5.0681,5.0697,5.0527,5.0527,5.0527,0,0,4.9902,4.9942,4.9981,5.0065,5.0101,5.0165,5.0127,5.0195,5.0243,5.0227,5.0313,5.0338,5.0388,5.0483,5.0527,5.0506,5.0673,5.0622,5.0629,5.0634,5.069,5.0706,5.072,5.0532,5.0531,5.0531,0,0,5.0002,5.0038,5.0113,5.0151,5.0207,5.0226,5.0244,5.0297,5.0314,5.0401,5.0391,5.0447,5.0547,5.0585,5.0617,5.0734,5.0724,5.0752,5.0809,5.0865,5.0879,5.0891,5.0935,5.095,5.0761,5.0761,5.0762,0,5.004,5.0138,5.0151,5.0223,5.0261,5.0253,5.0329,5.0363,5.0434,5.046,5.0436,5.0565,5.0598,5.0703,5.0732,5.0757,5.0779,5.0746,5.0876,5.0888,5.0899,5.0942,5.0958,5.0765,5.0764,5.0764,5.0764,0,5.0183,5.0251,5.0304,5.0377,5.042,5.0493,5.0517,5.056,5.0562,5.0584,5.0672,5.0712,5.0778,5.0803,5.0804,5.0909,5.0895,5.0873,5.083,5.0919,5.0959,5.0975,5.0769,5.0768,5.0767,5.0766,0,0,5.0302,5.0384,5.0403,5.0438,5.05,5.0552,5.0624,5.0691,5.0729,5.0777,5.0839,5.0926,5.0908,5.0944,5.095,5.0999,5.1093,5.0972,5.0973,5.0995,5.1213,5.1231,5.1249,5.1086,5.1089,5.1091,5.121,0,5.041,5.0542,5.0557,5.0674,5.0738,5.0732,5.0795,5.084,5.0862,5.0918,5.0941,5.1004,5.0974,5.0997,5.1045,5.1071,5.1137,5.1062,5.1143,5.1146,5.1134,5.127,5.1288,5.1398,5.1225,5.1228,5.123,0,5.0554,5.0611,5.0735,5.0792,5.0819,5.0876,5.094,5.0994,5.1045,5.1058,5.11,5.11,5.1175,5.1128,5.1232,5.1181,5.1215,5.1233,5.1237,5.1247,5.1195,5.1285,5.1434,5.1451,5.1254,5.1252,5.125,0,5.0632,5.0739,5.0828,5.0857,5.0925,5.0966,5.0995,5.1043,5.1084,5.1138,5.1165,5.1227,5.1261,5.1308,5.1325,5.1289,5.1429,5.1383,5.1442,5.1442,5.1473,5.1471,5.1631,5.1491,5.1491,5.1491,5.149,0,5.0752,5.0829,5.0865,5.092,5.1006,5.1022,5.1106,5.1134,5.1177,5.1237,5.1234,5.1289,5.1307,5.1366,5.1379,5.1464,5.1479,5.1491,5.1494,5.1493,5.1492,5.1517,5.151,5.1495,5.1494,5.1493,5.1492,0,5.0854,5.0882,5.0979,5.1036,5.1052,5.1113,5.1162,5.1214,5.1236,5.1312,5.1331,5.1365,5.1434,5.1456,5.1537,5.1546,5.1647,5.1642,5.1631,5.1632,5.1691,5.1686,5.1874,5.1901,5.1741,5.1743,5.1744,0,5.093,5.099,5.1055,5.1096,5.1129,5.1194,5.1236,5.1255,5.1298,5.1363,5.1408,5.1477,5.1534,5.1644,5.1675,5.1739,5.1737,5.1798,5.1746,5.1744,5.1741,5.1738,5.1745,5.1808,5.181,5.1811,5.1813,0,5.1063,5.1075,5.1137,5.1205,5.1256,5.131,5.1361,5.1394,5.142,5.1469,5.1542,5.1586,5.1672,5.1741,5.1807,5.1835,5.1829,5.1829,5.1846,5.1847,5.184,5.1847,5.1661,5.1825,5.1823,5.1823,5.1822,5.1821,5.1157,5.1211,5.1266,5.1336,5.1377,5.1426,5.148,5.1511,5.1572,5.1646,5.1652,5.1731,5.1781,5.1869,5.1901,5.1963,5.1945,5.1969,5.1976,5.1983,5.1989,5.1828,5.1974,5.1974,5.1973,5.1973,5.1973,0,5.1292,5.1328,5.1392,5.1467,5.1522,5.1513,5.157,5.1617,5.1687,5.1736,5.1793,5.1878,5.1945,5.1983,5.205,5.2092,5.2091,5.211,5.2108,5.2115,5.2,5.1979,5.211,5.211,5.211,5.211,5.2109,5.2109,5.1369,5.1461,5.1479,5.1592,5.1627,5.1707,5.174,5.1786,5.1825,5.1921,5.1978,5.2003,5.2048,5.2119,5.2181,5.219,5.2216,5.2237,5.2245,5.2137,5.2123,5.2109,5.209,5.2242,5.2242,5.2355,5.2356,5.2357]}]]